Location: St. Croix
(17.7278°N, 64.7644°W)
Time: 03:07:12
(UTC-04:00)

ISS - Visible Passes

Search period start: 19 October 2017 00:00
Search period end: 29 October 2017 00:00
Orbit: 401 x 408 km, 51.6° (Epoch: 19 October)

Date Brightness Start Highest point End Pass type
(mag) Time Alt. Az. Time Alt. Az. Time Alt. Az.
19 Oct -3.9 18:25:49 10° NW 18:29:04 81° NE 18:32:21 10° SE visible
21 Oct -1.2 18:18:03 10° WNW 18:20:48 24° SW 18:23:31 10° S visible
24 Oct -0.7 05:51:54 10° SSE 05:54:07 17° SE 05:56:19 10° E visible
26 Oct -3.4 05:42:28 10° SSW 05:45:41 65° SE 05:48:53 10° NE visible
27 Oct -1.4 04:50:44 10° S 04:53:23 23° SE 04:56:02 10° ENE visible
28 Oct -3.0 05:34:47 12° WSW 05:37:18 30° NW 05:40:12 10° NNE visible
